,

(GMT )
Banff

Weather History for CWZG - November, 2011

Change the Weather History Date:

Friday, November 11, 2011

  Actual Average Record
Temperature  
Mean Temperature 35 °F -  
Max Temperature 41 °F - - ()
Min Temperature 29 °F - - ()
Degree Days  
Heating Degree Days 30    
Moisture  
Dew Point 25 °F    
Average Humidity 67    
Maximum Humidity 96    
Minimum Humidity 44    
Precipitation  
Precipitation 0.29 in - - ()
Sea Level Pressure  
Sea Level Pressure 29.42 in    
Wind  
Wind Speed 9 mph ()    
Max Wind Speed 15 mph    
Max Gust Speed 30 mph    
T = Trace of Precipitation, MM = Missing Value Source: Averaged Metar Reports

Daily Weather History Graph

Daily Weather History Graph

Search for Another Location

Airport or City:

Trip Planner

Search our weather history database for the weather conditions in past years. The results will help you decide how hot, cold, wet, or windy it might be!

Date:

Astronomy

Nov. 11, 2011 Rise Set
Actual Time 7:52 AM MST 4:59 PM MST
Civil Twilight 7:15 AM MST 5:35 PM MST
Nautical Twilight 6:35 AM MST 6:15 PM MST
Astronomical Twilight 5:57 AM MST 6:54 PM MST
Moon 5:19 PM MST (11/11) 8:55 AM MST (11/11)
Length of Visible Light 10h 19m
Length of Day
9h 07m
Full, 99% of the Moon is Illuminated
Nov 11
Full
Nov 18
Last Quarter
Nov 24
New
Dec 2
First Quarter
Dec 10
Full

Hourly Weather History & Observations

Time (MST) Temp. Windchill Dew Point Humidity Pressure Visibility Wind Dir Wind Speed Gust Speed Precip Events Conditions
12:00 AM 41.5 °F 35.0 °F 25.5 °F 53% 29.62 in - WSW 11.5 mph 20.7 mph N/A   Unknown
1:00 AM 41.7 °F 35.2 °F 24.6 °F 51% 29.60 in - WSW 11.5 mph 21.9 mph N/A   Unknown
2:00 AM 41.5 °F 35.0 °F 24.6 °F 51% 29.57 in - WSW 11.5 mph 27.6 mph N/A   Unknown
3:00 AM 40.1 °F 33.6 °F 24.8 °F 54% 29.57 in - WSW 10.4 mph 21.9 mph N/A   Unknown
4:00 AM 40.3 °F 32.6 °F 22.3 °F 49% 29.55 in - WSW 13.8 mph 26.5 mph N/A   Unknown
5:00 AM 40.3 °F 32.2 °F 20.7 °F 46% 29.52 in - SW 15.0 mph 29.9 mph N/A   Unknown
7:00 AM 39.4 °F 31.8 °F 21.9 °F 50% 29.47 in - WSW 12.7 mph 23.0 mph N/A   Unknown
8:00 AM 39.6 °F 32.1 °F 22.1 °F 50% 29.44 in - WSW 12.7 mph 24.2 mph N/A   Unknown
9:00 AM 39.7 °F 32.3 °F 21.9 °F 49% 29.43 in - WSW 12.7 mph 24.2 mph N/A   Unknown
10:00 AM 41.2 °F 34.1 °F 21.2 °F 45% 29.39 in - WSW 12.7 mph 26.5 mph N/A   Unknown
11:00 AM 41.9 °F 35.4 °F 21.2 °F 44% 29.38 in - West 11.5 mph 27.6 mph N/A   Unknown
12:00 PM 41.2 °F 36.0 °F 23.4 °F 49% 29.37 in - West 8.1 mph - N/A   Unknown
1:00 PM 38.5 °F 32.7 °F 25.9 °F 61% 29.37 in - WSW 8.1 mph - N/A   Unknown
2:00 PM 35.1 °F 30.1 °F 29.1 °F 79% 29.38 in - WSW 5.8 mph - N/A   Unknown
3:00 PM 31.5 °F 24.2 °F 30.4 °F 96% 29.37 in - SW 8.1 mph - N/A   Unknown
4:00 PM 31.8 °F 26.2 °F 30.2 °F 94% 29.36 in - WSW 5.8 mph - N/A   Unknown
5:00 PM 31.5 °F 26.8 °F 29.1 °F 91% 29.34 in - WSW 4.6 mph - N/A   Unknown
6:00 PM 31.6 °F 28.3 °F 28.4 °F 88% 29.33 in - West 3.5 mph - N/A   Unknown
7:00 PM 31.6 °F 28.3 °F 27.3 °F 84% 29.32 in - West 3.5 mph - N/A   Unknown
8:00 PM 30.6 °F 25.8 °F 27.7 °F 89% 29.31 in - WSW 4.6 mph - N/A   Unknown
9:00 PM 29.5 °F 25.9 °F 27.5 °F 92% 29.31 in - WSW 3.5 mph - N/A   Unknown
10:00 PM 29.7 °F 23.7 °F 27.5 °F 92% 29.31 in - SW 5.8 mph - N/A   Unknown
11:00 PM 30.4 °F 26.9 °F 27.3 °F 88% 29.33 in - WSW 3.5 mph - N/A   Unknown